QFA840 YSSY-YPDN

Flight info

Callsign QFA840
Flight time 4h 27m
Altitude 34000
Route DCT RIC H530 KABIX/M079F360 H530 IVRAD Q57 NITUN/M079F380 Q57 MIGAX A464 TN Q23 VEGPU DCT
Aircraft B738/M-S/L

Departure

Time 2026-05-03 23:31
Airport Sydney Kingsford Smith International Airport (YSSY)

Arrival

Time 2026-05-04 03:58
Airport Darwin International Airport / RAAF Darwin (YPDN)
Time Latitude Longitude Altitude Speed Heading
2026-05-03 22:49 -33.93146 151.17857 29 ft 0 kts 191°
2026-05-03 23:16 -33.93134 151.17859 28 ft 2 kts 191°
2026-05-03 23:17 -33.93117 151.17863 29 ft 2 kts 192°
2026-05-03 23:17 -33.93102 151.17870 29 ft 2 kts 224°
2026-05-03 23:17 -33.93092 151.17886 29 ft 2 kts 243°
2026-05-03 23:17 -33.93085 151.17904 29 ft 2 kts 248°
2026-05-03 23:18 -33.93081 151.17923 29 ft 2 kts 268°
2026-05-03 23:18 -33.93082 151.17943 29 ft 2 kts 280°
2026-05-03 23:18 -33.93084 151.17953 29 ft 0 kts 280°
2026-05-03 23:20 -33.93083 151.17948 29 ft 2 kts 280°
2026-05-03 23:21 -33.93077 151.17906 29 ft 8 kts 279°
2026-05-03 23:21 -33.93065 151.17823 29 ft 12 kts 279°
2026-05-03 23:21 -33.93043 151.17729 29 ft 12 kts 296°
2026-05-03 23:21 -33.93014 151.17642 29 ft 11 kts 282°
2026-05-03 23:22 -33.93056 151.17532 29 ft 9 kts 206°
2026-05-03 23:22 -33.93124 151.17525 29 ft 12 kts 168°
2026-05-03 23:22 -33.93217 151.17549 29 ft 16 kts 168°
2026-05-03 23:23 -33.93330 151.17578 29 ft 16 kts 168°
2026-05-03 23:23 -33.93425 151.17592 29 ft 13 kts 188°
2026-05-03 23:23 -33.93519 151.17594 29 ft 15 kts 168°
2026-05-03 23:23 -33.93618 151.17621 29 ft 15 kts 161°
2026-05-03 23:24 -33.93715 151.17677 29 ft 15 kts 160°
2026-05-03 23:24 -33.93807 151.17702 29 ft 11 kts 169°
2026-05-03 23:24 -33.93855 151.17748 29 ft 9 kts 123°
2026-05-03 23:24 -33.93923 151.17785 28 ft 13 kts 167°
2026-05-03 23:25 -33.94035 151.17814 28 ft 20 kts 168°
2026-05-03 23:25 -33.94196 151.17855 29 ft 26 kts 168°
2026-05-03 23:25 -33.94351 151.17896 29 ft 20 kts 168°
2026-05-03 23:25 -33.94460 151.17904 29 ft 14 kts 204°
2026-05-03 23:26 -33.94553 151.17889 29 ft 16 kts 168°
2026-05-03 23:26 -33.94678 151.17921 29 ft 21 kts 168°
2026-05-03 23:26 -33.94835 151.17962 29 ft 26 kts 168°
2026-05-03 23:26 -33.94998 151.18005 29 ft 21 kts 168°
2026-05-03 23:27 -33.95125 151.18038 28 ft 12 kts 168°
2026-05-03 23:27 -33.95188 151.18015 29 ft 11 kts 245°
2026-05-03 23:27 -33.95208 151.17914 29 ft 14 kts 257°
2026-05-03 23:27 -33.95232 151.17783 28 ft 18 kts 258°
2026-05-03 23:28 -33.95258 151.17649 28 ft 15 kts 248°
2026-05-03 23:28 -33.95348 151.17585 28 ft 18 kts 177°
2026-05-03 23:28 -33.95490 151.17619 29 ft 24 kts 168°
2026-05-03 23:28 -33.95665 151.17664 29 ft 27 kts 168°
2026-05-03 23:29 -33.95849 151.17712 29 ft 25 kts 168°
2026-05-03 23:29 -33.96024 151.17757 29 ft 26 kts 168°
2026-05-03 23:29 -33.96190 151.17801 29 ft 24 kts 168°
2026-05-03 23:29 -33.96336 151.17838 29 ft 20 kts 168°
2026-05-03 23:30 -33.96422 151.17874 29 ft 12 kts 136°
2026-05-03 23:30 -33.96431 151.17959 29 ft 12 kts 77°
2026-05-03 23:30 -33.96413 151.18040 29 ft 8 kts 60°
2026-05-03 23:30 -33.96360 151.18047 29 ft 11 kts 348°
2026-05-03 23:31 -33.96138 151.17990 26 ft 64 kts 347°
2026-05-03 23:31 -33.95505 151.17825 28 ft 120 kts 348°
2026-05-03 23:31 -33.94528 151.17570 59 ft 162 kts 347°
2026-05-03 23:31 -33.93431 151.17291 674 ft 160 kts 347°
2026-05-03 23:32 -33.92339 151.16995 1430 ft 159 kts 344°
2026-05-03 23:32 -33.91361 151.16353 2200 ft 172 kts 321°
2026-05-03 23:32 -33.90462 151.15275 2811 ft 190 kts 317°
2026-05-03 23:32 -33.89510 151.14108 3341 ft 205 kts 317°
2026-05-03 23:33 -33.88450 151.12815 3642 ft 228 kts 317°
2026-05-03 23:33 -33.87291 151.11399 3977 ft 249 kts 316°
2026-05-03 23:33 -33.86052 151.09881 4739 ft 256 kts 316°
2026-05-03 23:33 -33.84806 151.08350 5688 ft 258 kts 316°
2026-05-03 23:34 -33.83541 151.06795 6509 ft 263 kts 316°
2026-05-03 23:34 -33.82247 151.05205 7268 ft 267 kts 315°
2026-05-03 23:34 -33.80941 151.03600 8090 ft 269 kts 315°
2026-05-03 23:34 -33.79623 151.01981 8892 ft 272 kts 315°
2026-05-03 23:35 -33.78292 151.00347 9668 ft 275 kts 315°
2026-05-03 23:35 -33.76940 150.98688 10341 ft 282 kts 315°
2026-05-03 23:35 -33.75507 150.96931 10560 ft 306 kts 315°
2026-05-03 23:35 -33.73965 150.95042 10732 ft 328 kts 315°
2026-05-03 23:36 -33.72315 150.93021 10904 ft 349 kts 315°
2026-05-03 23:36 -33.70569 150.90883 11049 ft 368 kts 315°
2026-05-03 23:36 -33.68742 150.88648 11323 ft 381 kts 315°
2026-05-03 23:36 -33.66876 150.86366 11866 ft 385 kts 315°
2026-05-03 23:37 -33.64997 150.84067 12496 ft 386 kts 315°
2026-05-03 23:37 -33.63110 150.81763 13078 ft 389 kts 315°
2026-05-03 23:37 -33.61210 150.79444 13629 ft 392 kts 315°
2026-05-03 23:37 -33.59287 150.77104 14155 ft 394 kts 315°
2026-05-03 23:38 -33.57324 150.74798 14639 ft 396 kts 316°
2026-05-03 23:38 -33.55324 150.72498 15132 ft 399 kts 316°
2026-05-03 23:38 -33.53313 150.70197 15621 ft 401 kts 316°
2026-05-03 23:38 -33.51293 150.67883 16112 ft 403 kts 316°
2026-05-03 23:39 -33.49263 150.65551 16590 ft 405 kts 316°
2026-05-03 23:39 -33.47223 150.63202 17039 ft 408 kts 316°
2026-05-03 23:39 -33.45173 150.60840 17471 ft 411 kts 316°
2026-05-03 23:39 -33.43134 150.58492 17886 ft 414 kts 316°
2026-05-03 23:40 -33.41730 150.56877 18204 ft 415 kts 316°
2026-05-03 23:40 -33.38972 150.53705 18762 ft 416 kts 316°
2026-05-03 23:40 -33.36884 150.51302 19181 ft 417 kts 316°
2026-05-03 23:40 -33.34792 150.48895 19591 ft 417 kts 316°
2026-05-03 23:41 -33.32700 150.46488 19977 ft 419 kts 316°
2026-05-03 23:41 -33.30597 150.44070 20371 ft 419 kts 316°
2026-05-03 23:41 -33.29175 150.42436 20636 ft 420 kts 316°
2026-05-03 23:41 -33.27062 150.40009 21014 ft 422 kts 316°
2026-05-03 23:42 -33.24944 150.37579 21376 ft 423 kts 316°
2026-05-03 23:42 -33.22844 150.35170 21736 ft 424 kts 316°
2026-05-03 23:42 -33.20719 150.32735 22098 ft 425 kts 316°
2026-05-03 23:42 -33.18578 150.30284 22493 ft 425 kts 316°
2026-05-03 23:43 -33.16413 150.27805 22785 ft 427 kts 316°
2026-05-03 23:43 -33.14283 150.25369 23002 ft 430 kts 315°
2026-05-03 23:43 -33.12121 150.22899 23380 ft 430 kts 315°
2026-05-03 23:43 -33.09956 150.20428 23694 ft 431 kts 315°
2026-05-03 23:44 -33.07787 150.17952 23964 ft 432 kts 315°
2026-05-03 23:44 -33.05612 150.15470 24228 ft 433 kts 315°
2026-05-03 23:44 -33.03435 150.12989 24480 ft 433 kts 315°
2026-05-03 23:44 -33.01255 150.10507 24737 ft 434 kts 315°
2026-05-03 23:45 -32.99072 150.08022 24992 ft 434 kts 315°
2026-05-03 23:45 -32.96887 150.05537 25233 ft 435 kts 315°
2026-05-03 23:45 -32.94700 150.03052 25475 ft 435 kts 315°
2026-05-03 23:45 -32.92509 150.00564 25724 ft 435 kts 315°
2026-05-03 23:46 -32.90320 149.98080 25956 ft 435 kts 315°
2026-05-03 23:46 -32.88124 149.95591 26147 ft 436 kts 315°
2026-05-03 23:46 -32.85928 149.93102 26373 ft 435 kts 315°
2026-05-03 23:46 -32.83743 149.90627 26666 ft 433 kts 315°
2026-05-03 23:47 -32.81569 149.88165 26996 ft 430 kts 315°
2026-05-03 23:47 -32.79404 149.85716 27321 ft 428 kts 315°
2026-05-03 23:47 -32.77282 149.83316 27606 ft 426 kts 315°
2026-05-03 23:47 -32.75140 149.80896 27889 ft 424 kts 315°
2026-05-03 23:48 -32.72980 149.78454 28259 ft 421 kts 314°
2026-05-03 23:48 -32.70866 149.76065 28621 ft 418 kts 314°
2026-05-03 23:48 -32.68792 149.73720 28954 ft 416 kts 314°
2026-05-03 23:48 -32.66690 149.71346 29284 ft 414 kts 314°
2026-05-03 23:49 -32.64606 149.68992 29629 ft 412 kts 314°
2026-05-03 23:49 -32.62535 149.66654 30009 ft 409 kts 314°
2026-05-03 23:49 -32.60484 149.64340 30348 ft 407 kts 314°
2026-05-03 23:49 -32.58436 149.62033 30664 ft 404 kts 314°
2026-05-03 23:50 -32.56413 149.59738 30985 ft 401 kts 312°
2026-05-03 23:50 -32.54576 149.57271 31288 ft 397 kts 308°
2026-05-03 23:50 -32.52843 149.54732 31581 ft 395 kts 307°
2026-05-03 23:50 -32.51115 149.52203 31889 ft 393 kts 307°
2026-05-03 23:51 -32.49418 149.49726 32190 ft 391 kts 307°
2026-05-03 23:51 -32.47703 149.47232 32426 ft 389 kts 307°
2026-05-03 23:51 -32.45997 149.44758 32718 ft 387 kts 307°
2026-05-03 23:51 -32.44300 149.42298 33014 ft 384 kts 307°
2026-05-03 23:52 -32.42612 149.39855 33306 ft 382 kts 307°
2026-05-03 23:52 -32.40932 149.37426 33627 ft 380 kts 307°
2026-05-03 23:52 -32.39259 149.35007 33886 ft 378 kts 307°
2026-05-03 23:52 -32.37600 149.32613 34116 ft 375 kts 307°
2026-05-03 23:53 -32.34288 149.27833 34129 ft 375 kts 307°
2026-05-03 23:53 -32.30968 149.23048 34137 ft 376 kts 307°
2026-05-03 23:54 -32.27643 149.18264 34135 ft 376 kts 307°
2026-05-03 23:54 -32.24339 149.13513 34135 ft 376 kts 307°
2026-05-03 23:55 -32.21018 149.08746 34129 ft 376 kts 307°
2026-05-03 23:55 -32.17694 149.03992 34127 ft 375 kts 307°
2026-05-03 23:56 -32.14375 148.99253 34137 ft 374 kts 307°
2026-05-03 23:56 -32.11067 148.94533 34133 ft 373 kts 307°
2026-05-03 23:57 -32.07751 148.89841 34127 ft 372 kts 309°
2026-05-03 23:57 -32.03866 148.85755 34117 ft 379 kts 320°
2026-05-03 23:58 -31.99472 148.82371 34121 ft 379 kts 321°
2026-05-03 23:58 -31.95047 148.78992 34115 ft 379 kts 320°
2026-05-03 23:59 -31.90641 148.75614 34112 ft 378 kts 320°
2026-05-03 23:59 -31.86247 148.72240 34119 ft 377 kts 320°
2026-05-04 00:00 -31.81858 148.68871 34118 ft 376 kts 320°
2026-05-04 00:00 -31.77480 148.65512 34111 ft 376 kts 320°
2026-05-04 00:01 -31.73101 148.62157 34117 ft 375 kts 320°
2026-05-04 00:01 -31.68719 148.58803 34114 ft 376 kts 320°
2026-05-04 00:02 -31.64332 148.55449 34115 ft 376 kts 320°
2026-05-04 00:02 -31.59952 148.52106 34109 ft 376 kts 320°
2026-05-04 00:03 -31.55566 148.48761 34112 ft 376 kts 320°
2026-05-04 00:03 -31.51180 148.45419 34115 ft 376 kts 320°
2026-05-04 00:04 -31.46792 148.42080 34115 ft 376 kts 320°
2026-05-04 00:04 -31.42405 148.38745 34112 ft 376 kts 320°
2026-05-04 00:05 -31.38040 148.35430 34111 ft 376 kts 320°
2026-05-04 00:05 -31.33638 148.32092 34109 ft 377 kts 320°
2026-05-04 00:06 -31.29228 148.28757 34111 ft 377 kts 320°
2026-05-04 00:06 -31.24817 148.25431 34110 ft 377 kts 320°
2026-05-04 00:07 -31.20398 148.22102 34109 ft 378 kts 320°
2026-05-04 00:07 -31.15981 148.18777 34113 ft 378 kts 320°
2026-05-04 00:08 -31.11559 148.15450 34109 ft 378 kts 320°
2026-05-04 00:08 -31.07135 148.12127 34110 ft 378 kts 320°
2026-05-04 00:09 -31.02713 148.08797 34108 ft 378 kts 320°
2026-05-04 00:09 -30.98290 148.05465 34105 ft 378 kts 320°
2026-05-04 00:10 -30.93894 148.02157 34104 ft 379 kts 320°
2026-05-04 00:10 -30.89466 147.98828 34103 ft 379 kts 320°
2026-05-04 00:11 -30.85038 147.95504 34108 ft 379 kts 320°
2026-05-04 00:11 -30.80604 147.92179 34099 ft 379 kts 320°
2026-05-04 00:12 -30.76169 147.88858 34099 ft 379 kts 320°
2026-05-04 00:12 -30.71727 147.85533 34101 ft 379 kts 320°
2026-05-04 00:13 -30.67286 147.82214 34104 ft 380 kts 320°
2026-05-04 00:13 -30.62838 147.78893 34102 ft 380 kts 320°
2026-05-04 00:14 -30.58387 147.75573 34107 ft 380 kts 320°
2026-05-04 00:14 -30.53957 147.72272 34103 ft 381 kts 320°
2026-05-04 00:15 -30.49494 147.68952 34101 ft 381 kts 320°
2026-05-04 00:15 -30.45024 147.65642 34101 ft 381 kts 320°
2026-05-04 00:16 -30.40547 147.62331 34098 ft 382 kts 320°
2026-05-04 00:16 -30.36062 147.59015 34096 ft 382 kts 320°
2026-05-04 00:17 -30.31578 147.55704 34099 ft 383 kts 320°
2026-05-04 00:17 -30.26948 147.52599 34099 ft 389 kts 326°
2026-05-04 00:18 -30.22068 147.49890 34094 ft 390 kts 326°
2026-05-04 00:18 -30.17173 147.47183 34096 ft 390 kts 326°
2026-05-04 00:19 -30.12283 147.44467 34099 ft 390 kts 326°
2026-05-04 00:19 -30.07384 147.41741 34096 ft 391 kts 326°
2026-05-04 00:20 -30.02487 147.39016 34097 ft 391 kts 326°
2026-05-04 00:20 -29.97607 147.36303 34097 ft 392 kts 326°
2026-05-04 00:21 -29.92691 147.33573 34096 ft 392 kts 326°
2026-05-04 00:21 -29.87770 147.30844 34097 ft 392 kts 326°
2026-05-04 00:22 -29.82846 147.28115 34097 ft 393 kts 326°
2026-05-04 00:22 -29.77918 147.25388 34099 ft 393 kts 326°
2026-05-04 00:23 -29.72989 147.22664 34095 ft 393 kts 326°
2026-05-04 00:23 -29.68056 147.19939 34096 ft 393 kts 326°
2026-05-04 00:24 -29.63122 147.17217 34097 ft 393 kts 326°
2026-05-04 00:24 -29.58209 147.14510 34095 ft 394 kts 326°
2026-05-04 00:25 -29.53258 147.11785 34098 ft 394 kts 326°
2026-05-04 00:25 -29.48310 147.09064 34102 ft 394 kts 326°
2026-05-04 00:26 -29.43358 147.06344 34098 ft 395 kts 326°
2026-05-04 00:26 -29.38404 147.03625 34108 ft 395 kts 326°
2026-05-04 00:27 -29.33440 147.00903 34137 ft 397 kts 326°
2026-05-04 00:27 -29.31789 146.99999 34245 ft 396 kts 326°
2026-05-04 00:27 -29.29306 146.98642 34461 ft 394 kts 326°
2026-05-04 00:28 -29.26836 146.97294 34668 ft 393 kts 326°
2026-05-04 00:28 -29.24373 146.95952 34853 ft 392 kts 326°
2026-05-04 00:28 -29.21911 146.94610 35008 ft 392 kts 326°
2026-05-04 00:28 -29.19449 146.93268 35163 ft 392 kts 326°
2026-05-04 00:29 -29.16988 146.91927 35341 ft 391 kts 326°
2026-05-04 00:29 -29.14534 146.90591 35508 ft 390 kts 326°
2026-05-04 00:29 -29.12088 146.89260 35665 ft 390 kts 326°
2026-05-04 00:29 -29.09639 146.87927 35823 ft 389 kts 326°
2026-05-04 00:30 -29.07197 146.86599 35966 ft 389 kts 326°
2026-05-04 00:30 -29.04757 146.85274 36075 ft 388 kts 326°
2026-05-04 00:30 -28.99874 146.82621 36102 ft 389 kts 326°
2026-05-04 00:31 -28.94980 146.79965 36109 ft 390 kts 326°
2026-05-04 00:31 -28.90075 146.77308 36114 ft 390 kts 326°
2026-05-04 00:32 -28.85164 146.74649 36108 ft 391 kts 326°
2026-05-04 00:32 -28.80281 146.72008 36107 ft 391 kts 326°
2026-05-04 00:33 -28.73132 146.67665 36105 ft 381 kts 317°
2026-05-04 00:34 -28.68899 146.64023 36105 ft 381 kts 317°
2026-05-04 00:34 -28.64657 146.60388 36116 ft 382 kts 317°
2026-05-04 00:35 -28.60402 146.56758 36112 ft 382 kts 317°
2026-05-04 00:35 -28.56141 146.53134 36113 ft 382 kts 317°
2026-05-04 00:36 -28.51874 146.49511 36119 ft 383 kts 317°
2026-05-04 00:36 -28.47603 146.45887 36118 ft 383 kts 317°
2026-05-04 00:37 -28.43358 146.42290 36116 ft 383 kts 317°
2026-05-04 00:37 -28.39081 146.38668 36120 ft 384 kts 317°
2026-05-04 00:38 -28.34797 146.35046 36117 ft 384 kts 317°
2026-05-04 00:38 -28.30515 146.31429 36120 ft 384 kts 317°
2026-05-04 00:39 -28.26228 146.27811 36122 ft 384 kts 317°
2026-05-04 00:39 -28.21937 146.24192 36124 ft 384 kts 317°
2026-05-04 00:40 -28.17647 146.20579 36121 ft 384 kts 317°
2026-05-04 00:40 -28.13348 146.16962 36118 ft 384 kts 317°
2026-05-04 00:41 -28.09055 146.13354 36124 ft 384 kts 317°
2026-05-04 00:41 -28.04779 146.09764 36127 ft 384 kts 317°
2026-05-04 00:42 -28.00482 146.06159 36128 ft 384 kts 317°
2026-05-04 00:42 -27.96177 146.02552 36125 ft 385 kts 317°
2026-05-04 00:43 -27.91895 145.98967 36132 ft 385 kts 317°
2026-05-04 00:43 -27.87591 145.95368 36126 ft 385 kts 317°
2026-05-04 00:44 -27.83291 145.91775 36127 ft 385 kts 317°
2026-05-04 00:44 -27.78983 145.88180 36125 ft 384 kts 317°
2026-05-04 00:45 -27.74698 145.84608 36128 ft 385 kts 317°
2026-05-04 00:45 -27.70393 145.81022 36124 ft 385 kts 317°
2026-05-04 00:46 -27.66082 145.77435 36130 ft 385 kts 317°
2026-05-04 00:46 -27.61770 145.73850 36134 ft 384 kts 317°
2026-05-04 00:47 -27.57464 145.70274 36127 ft 384 kts 317°
2026-05-04 00:47 -27.53158 145.66702 36130 ft 384 kts 317°
2026-05-04 00:48 -27.48847 145.63129 36126 ft 384 kts 317°
2026-05-04 00:48 -27.44540 145.59563 36123 ft 384 kts 317°
2026-05-04 00:49 -27.40258 145.56020 36125 ft 384 kts 317°
2026-05-04 00:49 -27.35947 145.52458 36124 ft 384 kts 318°
2026-05-04 00:50 -27.31633 145.48895 36128 ft 384 kts 317°
2026-05-04 00:50 -27.27314 145.45333 36130 ft 384 kts 318°
2026-05-04 00:51 -27.23024 145.41800 36119 ft 384 kts 318°
2026-05-04 00:51 -27.18705 145.38250 36124 ft 384 kts 318°
2026-05-04 00:52 -27.14391 145.34706 36120 ft 384 kts 318°
2026-05-04 00:52 -27.10076 145.31164 36125 ft 384 kts 318°
2026-05-04 00:53 -27.05758 145.27622 36118 ft 384 kts 318°
2026-05-04 00:53 -27.01442 145.24085 36118 ft 384 kts 318°
2026-05-04 00:54 -26.97119 145.20547 36124 ft 385 kts 318°
2026-05-04 00:54 -26.92794 145.17008 36116 ft 385 kts 318°
2026-05-04 00:55 -26.88467 145.13472 36119 ft 385 kts 318°
2026-05-04 00:55 -26.84143 145.09943 36118 ft 385 kts 318°
2026-05-04 00:56 -26.80200 145.05993 36123 ft 378 kts 310°
2026-05-04 00:56 -26.76585 145.01758 36111 ft 379 kts 310°
2026-05-04 00:57 -26.72940 144.97502 36115 ft 379 kts 310°
2026-05-04 00:57 -26.69285 144.93251 36117 ft 379 kts 310°
2026-05-04 00:58 -26.65625 144.89004 36117 ft 379 kts 310°
2026-05-04 00:58 -26.61960 144.84756 36120 ft 379 kts 310°
2026-05-04 00:59 -26.58295 144.80513 36120 ft 380 kts 310°
2026-05-04 00:59 -26.54619 144.76263 36117 ft 380 kts 310°
2026-05-04 01:00 -26.50945 144.72018 36108 ft 380 kts 310°
2026-05-04 01:00 -26.47286 144.67794 36122 ft 380 kts 310°
2026-05-04 01:01 -26.43605 144.63550 36121 ft 380 kts 310°
2026-05-04 01:01 -26.39925 144.59311 36121 ft 380 kts 310°
2026-05-04 01:02 -26.36239 144.55069 36120 ft 381 kts 310°
2026-05-04 01:02 -26.32552 144.50830 36124 ft 381 kts 310°
2026-05-04 01:03 -26.28864 144.46594 36100 ft 381 kts 310°
2026-05-04 01:03 -26.25174 144.42360 36114 ft 381 kts 310°
2026-05-04 01:04 -26.21479 144.38124 36117 ft 381 kts 310°
2026-05-04 01:04 -26.17785 144.33894 36120 ft 381 kts 310°
2026-05-04 01:05 -26.14088 144.29663 36118 ft 381 kts 310°
2026-05-04 01:05 -26.10395 144.25442 36117 ft 381 kts 310°
2026-05-04 01:06 -26.06699 144.21222 36122 ft 380 kts 310°
2026-05-04 01:06 -26.03006 144.17009 36119 ft 380 kts 310°
2026-05-04 01:07 -25.99308 144.12794 36115 ft 380 kts 310°
2026-05-04 01:07 -25.95638 144.08615 36115 ft 380 kts 310°
2026-05-04 01:08 -25.91943 144.04412 36119 ft 380 kts 310°
2026-05-04 01:08 -25.88249 144.00214 36122 ft 380 kts 311°
2026-05-04 01:09 -25.84554 143.96018 36116 ft 380 kts 311°
2026-05-04 01:09 -25.80861 143.91829 36115 ft 380 kts 311°
2026-05-04 01:10 -25.77167 143.87643 36117 ft 379 kts 311°
2026-05-04 01:10 -25.73498 143.83489 36119 ft 379 kts 311°
2026-05-04 01:11 -25.69795 143.79300 36119 ft 379 kts 311°
2026-05-04 01:11 -25.66102 143.75127 36118 ft 379 kts 311°
2026-05-04 01:12 -25.62401 143.70949 36119 ft 379 kts 311°
2026-05-04 01:12 -25.58705 143.66779 36118 ft 379 kts 311°
2026-05-04 01:13 -25.55007 143.62613 36120 ft 379 kts 311°
2026-05-04 01:13 -25.51305 143.58445 36115 ft 379 kts 311°
2026-05-04 01:14 -25.47625 143.54306 36117 ft 379 kts 311°
2026-05-04 01:14 -25.43924 143.50147 36117 ft 379 kts 311°
2026-05-04 01:15 -25.40226 143.45995 36112 ft 379 kts 311°
2026-05-04 01:15 -25.36521 143.41840 36112 ft 379 kts 311°
2026-05-04 01:16 -25.33445 143.38393 36115 ft 379 kts 311°
2026-05-04 01:16 -25.29747 143.34252 36115 ft 379 kts 311°
2026-05-04 01:17 -25.26038 143.30103 36118 ft 379 kts 311°
2026-05-04 01:17 -25.22332 143.25960 36115 ft 379 kts 311°
2026-05-04 01:18 -25.18623 143.21819 36121 ft 379 kts 311°
2026-05-04 01:18 -25.14909 143.17675 36122 ft 379 kts 311°
2026-05-04 01:19 -25.11219 143.13562 36118 ft 379 kts 311°
2026-05-04 01:19 -25.07502 143.09424 36116 ft 379 kts 311°
2026-05-04 01:20 -25.03787 143.05290 36119 ft 380 kts 311°
2026-05-04 01:20 -25.00068 143.01156 36120 ft 380 kts 311°
2026-05-04 01:21 -24.96347 142.97024 36118 ft 380 kts 311°
2026-05-04 01:21 -24.92621 142.92890 36122 ft 380 kts 311°
2026-05-04 01:22 -24.88916 142.88783 36117 ft 380 kts 311°
2026-05-04 01:22 -24.85195 142.84662 36117 ft 380 kts 311°
2026-05-04 01:23 -24.81468 142.80539 36124 ft 380 kts 311°
2026-05-04 01:23 -24.77736 142.76412 36121 ft 380 kts 311°
2026-05-04 01:24 -24.74001 142.72287 36122 ft 380 kts 311°
2026-05-04 01:24 -24.70266 142.68166 36122 ft 380 kts 311°
2026-05-04 01:25 -24.66529 142.64045 36120 ft 380 kts 311°
2026-05-04 01:25 -24.62784 142.59921 36121 ft 381 kts 311°
2026-05-04 01:26 -24.59042 142.55802 36122 ft 381 kts 311°
2026-05-04 01:26 -24.55293 142.51680 36124 ft 381 kts 311°
2026-05-04 01:27 -24.51568 142.47587 36119 ft 381 kts 311°
2026-05-04 01:27 -24.47810 142.43464 36116 ft 382 kts 311°
2026-05-04 01:28 -24.44051 142.39341 36116 ft 382 kts 311°
2026-05-04 01:28 -24.40294 142.35225 36120 ft 382 kts 311°
2026-05-04 01:29 -24.36531 142.31106 36114 ft 382 kts 312°
2026-05-04 01:29 -24.32766 142.26988 36116 ft 382 kts 312°
2026-05-04 01:30 -24.29024 142.22900 36119 ft 382 kts 312°
2026-05-04 01:30 -24.25253 142.18783 36118 ft 382 kts 312°
2026-05-04 01:31 -24.21485 142.14672 36117 ft 382 kts 312°
2026-05-04 01:31 -24.17713 142.10561 36116 ft 383 kts 312°
2026-05-04 01:32 -24.13929 142.06442 36115 ft 383 kts 312°
2026-05-04 01:32 -24.10148 142.02328 36113 ft 383 kts 312°
2026-05-04 01:33 -24.06384 141.98237 36112 ft 384 kts 312°
2026-05-04 01:33 -24.02592 141.94119 36111 ft 384 kts 312°
2026-05-04 01:34 -23.98800 141.90005 36112 ft 384 kts 312°
2026-05-04 01:34 -23.95001 141.85886 36112 ft 385 kts 312°
2026-05-04 01:35 -23.91188 141.81756 36115 ft 385 kts 312°
2026-05-04 01:35 -23.87375 141.77630 36110 ft 385 kts 312°
2026-05-04 01:36 -23.83590 141.73538 36113 ft 385 kts 312°
2026-05-04 01:36 -23.79779 141.69420 36114 ft 385 kts 312°
2026-05-04 01:37 -23.75964 141.65303 36113 ft 386 kts 312°
2026-05-04 01:37 -23.72149 141.61189 36113 ft 386 kts 312°
2026-05-04 01:38 -23.68331 141.57076 36109 ft 386 kts 312°
2026-05-04 01:38 -23.64515 141.52968 36109 ft 386 kts 312°
2026-05-04 01:39 -23.60688 141.48851 36111 ft 386 kts 313°
2026-05-04 01:39 -23.56867 141.44745 36113 ft 386 kts 313°
2026-05-04 01:40 -23.53039 141.40634 36109 ft 386 kts 313°
2026-05-04 01:40 -23.49219 141.36537 36113 ft 386 kts 313°
2026-05-04 01:41 -23.45420 141.32465 36115 ft 385 kts 313°
2026-05-04 01:41 -23.41598 141.28371 36113 ft 386 kts 313°
2026-05-04 01:42 -23.37772 141.24277 36115 ft 386 kts 313°
2026-05-04 01:42 -23.33944 141.20184 36119 ft 386 kts 313°
2026-05-04 01:43 -23.30102 141.16080 36114 ft 386 kts 313°
2026-05-04 01:43 -23.26285 141.12005 36115 ft 386 kts 313°
2026-05-04 01:44 -23.22445 141.07910 36115 ft 387 kts 313°
2026-05-04 01:44 -23.18602 141.03815 36114 ft 387 kts 313°
2026-05-04 01:45 -23.14755 140.99718 36114 ft 387 kts 313°
2026-05-04 01:45 -23.08972 140.93567 36114 ft 387 kts 313°
2026-05-04 01:46 -23.05004 140.89592 36117 ft 388 kts 315°
2026-05-04 01:46 -23.00989 140.85711 36113 ft 389 kts 315°
2026-05-04 01:47 -22.96957 140.81804 36113 ft 389 kts 315°
2026-05-04 01:47 -22.92925 140.77878 36115 ft 389 kts 315°
2026-05-04 01:48 -22.88896 140.73948 36112 ft 389 kts 315°
2026-05-04 01:48 -22.84866 140.70017 36114 ft 389 kts 315°
2026-05-04 01:49 -22.80834 140.66086 36113 ft 389 kts 315°
2026-05-04 01:49 -22.76803 140.62159 36114 ft 390 kts 315°
2026-05-04 01:50 -22.72797 140.58261 36113 ft 390 kts 315°
2026-05-04 01:50 -22.68760 140.54335 36117 ft 390 kts 315°
2026-05-04 01:51 -22.64722 140.50411 36113 ft 390 kts 315°
2026-05-04 01:51 -22.60675 140.46483 36111 ft 390 kts 315°
2026-05-04 01:52 -22.56630 140.42559 36113 ft 390 kts 315°
2026-05-04 01:52 -22.52581 140.38635 36116 ft 391 kts 315°
2026-05-04 01:53 -22.48530 140.34711 36112 ft 391 kts 315°
2026-05-04 01:53 -22.44501 140.30813 36116 ft 391 kts 315°
2026-05-04 01:54 -22.40440 140.26887 36118 ft 392 kts 315°
2026-05-04 01:54 -22.36375 140.22960 36115 ft 392 kts 315°
2026-05-04 01:55 -22.32309 140.19035 36118 ft 392 kts 315°
2026-05-04 01:55 -22.28235 140.15106 36113 ft 392 kts 315°
2026-05-04 01:56 -22.24161 140.11180 36112 ft 393 kts 315°
2026-05-04 01:56 -22.20079 140.07250 36115 ft 393 kts 315°
2026-05-04 01:57 -22.16013 140.03337 36113 ft 393 kts 315°
2026-05-04 01:57 -22.11924 139.99407 36113 ft 393 kts 315°
2026-05-04 01:58 -22.07836 139.95479 36114 ft 394 kts 315°
2026-05-04 01:58 -22.03746 139.91554 36113 ft 394 kts 315°
2026-05-04 01:59 -21.99671 139.87646 36113 ft 394 kts 315°
2026-05-04 01:59 -21.95569 139.83715 36114 ft 394 kts 315°
2026-05-04 02:00 -21.91464 139.79785 36109 ft 395 kts 315°
2026-05-04 02:00 -21.87357 139.75856 36139 ft 395 kts 315°
2026-05-04 02:01 -21.83242 139.71922 36112 ft 395 kts 315°
2026-05-04 02:01 -21.79124 139.67988 36115 ft 395 kts 315°
2026-05-04 02:02 -21.75035 139.64086 36109 ft 396 kts 315°
2026-05-04 02:02 -21.70913 139.60155 36106 ft 396 kts 315°
2026-05-04 02:03 -21.66786 139.56222 36107 ft 396 kts 316°
2026-05-04 02:03 -21.62658 139.52292 36114 ft 397 kts 316°
2026-05-04 02:04 -21.58523 139.48358 36104 ft 397 kts 316°
2026-05-04 02:04 -21.54386 139.44425 36105 ft 397 kts 316°
2026-05-04 02:05 -21.50939 139.41151 36112 ft 398 kts 316°
2026-05-04 02:05 -21.46788 139.37211 36109 ft 398 kts 316°
2026-05-04 02:06 -21.42634 139.33270 36114 ft 399 kts 316°
2026-05-04 02:06 -21.38477 139.29331 36114 ft 399 kts 316°
2026-05-04 02:07 -21.34306 139.25381 36113 ft 399 kts 316°
2026-05-04 02:07 -21.30136 139.21435 36109 ft 400 kts 316°
2026-05-04 02:08 -21.25962 139.17489 36110 ft 400 kts 316°
2026-05-04 02:08 -21.21807 139.13563 36111 ft 401 kts 316°
2026-05-04 02:09 -21.17621 139.09612 36114 ft 401 kts 316°
2026-05-04 02:09 -21.13433 139.05661 36112 ft 401 kts 316°
2026-05-04 02:10 -21.09242 139.01710 36118 ft 402 kts 316°
2026-05-04 02:10 -21.05046 138.97759 36112 ft 402 kts 316°
2026-05-04 02:11 -21.00845 138.93805 36115 ft 402 kts 316°
2026-05-04 02:11 -20.96643 138.89854 36117 ft 402 kts 316°
2026-05-04 02:12 -20.92435 138.85901 36112 ft 402 kts 316°
2026-05-04 02:12 -20.88224 138.81947 36116 ft 402 kts 316°
2026-05-04 02:13 -20.84017 138.78000 36113 ft 402 kts 316°
2026-05-04 02:13 -20.79809 138.74056 36111 ft 403 kts 316°
2026-05-04 02:14 -20.75599 138.70112 36108 ft 402 kts 316°
2026-05-04 02:14 -20.71388 138.66171 36116 ft 402 kts 316°
2026-05-04 02:15 -20.67175 138.62231 36104 ft 402 kts 316°
2026-05-04 02:15 -20.62991 138.58321 36108 ft 402 kts 316°
2026-05-04 02:16 -20.58784 138.54392 36112 ft 402 kts 316°
2026-05-04 02:16 -20.54572 138.50462 36105 ft 402 kts 316°
2026-05-04 02:17 -20.50362 138.46536 36106 ft 402 kts 316°
2026-05-04 02:17 -20.46148 138.42610 36102 ft 402 kts 316°
2026-05-04 02:18 -20.41935 138.38688 36104 ft 402 kts 316°
2026-05-04 02:18 -20.37713 138.34761 36101 ft 402 kts 316°
2026-05-04 02:19 -20.33496 138.30841 36098 ft 402 kts 316°
2026-05-04 02:19 -20.29273 138.26917 36096 ft 402 kts 316°
2026-05-04 02:20 -20.25074 138.23021 36090 ft 403 kts 316°
2026-05-04 02:20 -20.20850 138.19102 36093 ft 403 kts 316°
2026-05-04 02:21 -20.16604 138.15166 36175 ft 406 kts 316°
2026-05-04 02:21 -20.14476 138.13195 36329 ft 406 kts 316°
2026-05-04 02:21 -20.12349 138.11226 36516 ft 404 kts 316°
2026-05-04 02:22 -20.10227 138.09262 36659 ft 404 kts 316°
2026-05-04 02:22 -20.08099 138.07294 36775 ft 405 kts 316°
2026-05-04 02:22 -20.05971 138.05325 36902 ft 405 kts 316°
2026-05-04 02:22 -20.03873 138.03386 37048 ft 405 kts 316°
2026-05-04 02:23 -20.01755 138.01428 37243 ft 403 kts 316°
2026-05-04 02:23 -19.99631 137.99467 37460 ft 402 kts 316°
2026-05-04 02:23 -19.97524 137.97521 37660 ft 401 kts 316°
2026-05-04 02:23 -19.95418 137.95577 37819 ft 401 kts 316°
2026-05-04 02:24 -19.93313 137.93634 37956 ft 401 kts 316°
2026-05-04 02:24 -19.91210 137.91694 38051 ft 400 kts 316°
2026-05-04 02:24 -19.86988 137.87800 38076 ft 403 kts 316°
2026-05-04 02:25 -19.82747 137.83893 38078 ft 404 kts 316°
2026-05-04 02:25 -19.78493 137.79976 38076 ft 405 kts 317°
2026-05-04 02:26 -19.74232 137.76056 38076 ft 405 kts 317°
2026-05-04 02:26 -19.69966 137.72135 38076 ft 406 kts 317°
2026-05-04 02:27 -19.65699 137.68214 38073 ft 406 kts 317°
2026-05-04 02:27 -19.61454 137.64318 38078 ft 406 kts 317°
2026-05-04 02:28 -19.57176 137.60393 38073 ft 406 kts 317°
2026-05-04 02:28 -19.52898 137.56472 38071 ft 406 kts 317°
2026-05-04 02:29 -19.48625 137.52558 38078 ft 406 kts 317°
2026-05-04 02:29 -19.44355 137.48649 38072 ft 406 kts 317°
2026-05-04 02:30 -19.40081 137.44738 38074 ft 405 kts 317°
2026-05-04 02:30 -19.35835 137.40857 38076 ft 405 kts 317°
2026-05-04 02:31 -19.31539 137.36936 38075 ft 405 kts 317°
2026-05-04 02:31 -19.27293 137.33065 38075 ft 405 kts 317°
2026-05-04 02:32 -19.23022 137.29173 38067 ft 405 kts 317°
2026-05-04 02:32 -19.18747 137.25279 38069 ft 405 kts 317°
2026-05-04 02:33 -19.14471 137.21386 38072 ft 406 kts 317°
2026-05-04 02:33 -19.10187 137.17490 38072 ft 406 kts 317°
2026-05-04 02:34 -19.05908 137.13599 38067 ft 406 kts 317°
2026-05-04 02:34 -19.01624 137.09708 38069 ft 406 kts 317°
2026-05-04 02:35 -18.97331 137.05810 38070 ft 406 kts 317°
2026-05-04 02:35 -18.93038 137.01916 38065 ft 407 kts 317°
2026-05-04 02:36 -18.88746 136.98025 38063 ft 407 kts 317°
2026-05-04 02:36 -18.84477 136.94159 38061 ft 407 kts 317°
2026-05-04 02:37 -18.80177 136.90266 38061 ft 407 kts 317°
2026-05-04 02:37 -18.75878 136.86377 38064 ft 407 kts 317°
2026-05-04 02:38 -18.71571 136.82484 38057 ft 407 kts 317°
2026-05-04 02:38 -18.67266 136.78594 38056 ft 407 kts 317°
2026-05-04 02:39 -18.62957 136.74705 38054 ft 408 kts 317°
2026-05-04 02:39 -18.58644 136.70814 38051 ft 408 kts 317°
2026-05-04 02:40 -18.54331 136.66926 38052 ft 408 kts 317°
2026-05-04 02:40 -18.50012 136.63035 38044 ft 408 kts 317°
2026-05-04 02:41 -18.45717 136.59169 38042 ft 409 kts 317°
2026-05-04 02:41 -18.41389 136.55275 38043 ft 409 kts 317°
2026-05-04 02:42 -18.37060 136.51384 38042 ft 409 kts 317°
2026-05-04 02:42 -18.32729 136.47493 38038 ft 409 kts 317°
2026-05-04 02:43 -18.28388 136.43596 38034 ft 410 kts 317°
2026-05-04 02:43 -18.24048 136.39702 38033 ft 410 kts 317°
2026-05-04 02:44 -18.19732 136.35832 38034 ft 410 kts 317°
2026-05-04 02:44 -18.15388 136.31940 38031 ft 410 kts 317°
2026-05-04 02:45 -18.11040 136.28048 38030 ft 410 kts 317°
2026-05-04 02:45 -18.06696 136.24161 38032 ft 410 kts 317°
2026-05-04 02:46 -18.02348 136.20273 38029 ft 410 kts 317°
2026-05-04 02:46 -17.97995 136.16383 38032 ft 411 kts 317°
2026-05-04 02:47 -17.93641 136.12495 38029 ft 411 kts 317°
2026-05-04 02:47 -17.89287 136.08610 38026 ft 411 kts 317°
2026-05-04 02:48 -17.84931 136.04726 38030 ft 411 kts 317°
2026-05-04 02:48 -17.80569 136.00839 38025 ft 411 kts 317°
2026-05-04 02:49 -17.76204 135.96951 38024 ft 411 kts 317°
2026-05-04 02:49 -17.71836 135.93064 38022 ft 412 kts 317°
2026-05-04 02:50 -17.67466 135.89178 38017 ft 412 kts 317°
2026-05-04 02:50 -17.63119 135.85315 38018 ft 412 kts 317°
2026-05-04 02:51 -17.58741 135.81425 38020 ft 412 kts 317°
2026-05-04 02:51 -17.54353 135.77531 38021 ft 413 kts 317°
2026-05-04 02:52 -17.49969 135.73642 38016 ft 413 kts 317°
2026-05-04 02:52 -17.46325 135.70412 38015 ft 413 kts 317°
2026-05-04 02:53 -17.41944 135.66530 38013 ft 413 kts 317°
2026-05-04 02:53 -17.37556 135.62645 38014 ft 413 kts 317°
2026-05-04 02:54 -17.33163 135.58759 38010 ft 413 kts 317°
2026-05-04 02:54 -17.28770 135.54874 38008 ft 413 kts 317°
2026-05-04 02:55 -17.22174 135.49046 38002 ft 414 kts 317°
2026-05-04 02:56 -17.17796 135.45181 38006 ft 415 kts 317°
2026-05-04 02:56 -17.13384 135.41288 38006 ft 415 kts 317°
2026-05-04 02:57 -17.08973 135.37399 38005 ft 415 kts 317°
2026-05-04 02:57 -17.04553 135.33505 38003 ft 416 kts 317°
2026-05-04 02:58 -17.00131 135.29611 38004 ft 416 kts 318°
2026-05-04 02:58 -16.95706 135.25717 38003 ft 416 kts 318°
2026-05-04 02:59 -16.91275 135.21821 38004 ft 416 kts 317°
2026-05-04 02:59 -16.86843 135.17926 37996 ft 416 kts 318°
2026-05-04 03:00 -16.82408 135.14030 37997 ft 417 kts 318°
2026-05-04 03:00 -16.77967 135.10132 37996 ft 417 kts 318°
2026-05-04 03:01 -16.73548 135.06256 37994 ft 417 kts 318°
2026-05-04 03:01 -16.69106 135.02361 37994 ft 418 kts 318°
2026-05-04 03:02 -16.64655 134.98461 37997 ft 418 kts 318°
2026-05-04 03:02 -16.60197 134.94558 37990 ft 418 kts 318°
2026-05-04 03:03 -16.55735 134.90655 37992 ft 419 kts 318°
2026-05-04 03:03 -16.51266 134.86747 37992 ft 419 kts 318°
2026-05-04 03:04 -16.46792 134.82837 37995 ft 419 kts 318°
2026-05-04 03:04 -16.42346 134.78953 37990 ft 420 kts 318°
2026-05-04 03:05 -16.37868 134.75044 37981 ft 420 kts 318°
2026-05-04 03:05 -16.33383 134.71132 37986 ft 420 kts 318°
2026-05-04 03:06 -16.28898 134.67223 37989 ft 421 kts 318°
2026-05-04 03:06 -16.24402 134.63305 37984 ft 421 kts 318°
2026-05-04 03:07 -16.19910 134.59393 37985 ft 421 kts 318°
2026-05-04 03:07 -16.15438 134.55502 37980 ft 421 kts 318°
2026-05-04 03:08 -16.10940 134.51589 37984 ft 422 kts 318°
2026-05-04 03:08 -16.06435 134.47673 37987 ft 422 kts 318°
2026-05-04 03:09 -16.02109 134.43561 37972 ft 420 kts 309°
2026-05-04 03:09 -15.98595 134.38711 37975 ft 420 kts 306°
2026-05-04 03:10 -15.95147 134.33853 37976 ft 420 kts 306°
2026-05-04 03:10 -15.91655 134.28966 37976 ft 420 kts 306°
2026-05-04 03:11 -15.88156 134.24095 37976 ft 421 kts 306°
2026-05-04 03:11 -15.84650 134.19224 37975 ft 421 kts 306°
2026-05-04 03:12 -15.81139 134.14351 37976 ft 422 kts 306°
2026-05-04 03:12 -15.77620 134.09471 37973 ft 422 kts 306°
2026-05-04 03:13 -15.74097 134.04588 37972 ft 423 kts 306°
2026-05-04 03:13 -15.70569 133.99700 37970 ft 423 kts 306°
2026-05-04 03:14 -15.67035 133.94807 37972 ft 424 kts 306°
2026-05-04 03:14 -15.63520 133.89944 37973 ft 424 kts 306°
2026-05-04 03:15 -15.59977 133.85045 37970 ft 425 kts 306°
2026-05-04 03:15 -15.56428 133.80141 37966 ft 425 kts 306°
2026-05-04 03:16 -15.52874 133.75234 37970 ft 425 kts 306°
2026-05-04 03:16 -15.49320 133.70329 37968 ft 426 kts 306°
2026-05-04 03:17 -15.45756 133.65414 37968 ft 426 kts 306°
2026-05-04 03:17 -15.42214 133.60533 37964 ft 427 kts 306°
2026-05-04 03:18 -15.38637 133.55607 37969 ft 427 kts 306°
2026-05-04 03:18 -15.35061 133.50686 37967 ft 427 kts 306°
2026-05-04 03:19 -15.31484 133.45769 37962 ft 427 kts 305°
2026-05-04 03:19 -15.27909 133.40850 37967 ft 427 kts 305°
2026-05-04 03:20 -15.24329 133.35931 37968 ft 428 kts 305°
2026-05-04 03:20 -15.20744 133.31010 37969 ft 428 kts 305°
2026-05-04 03:21 -15.17175 133.26112 37965 ft 428 kts 305°
2026-05-04 03:21 -15.13580 133.21183 37964 ft 429 kts 305°
2026-05-04 03:22 -15.09984 133.16256 37980 ft 429 kts 305°
2026-05-04 03:22 -15.05752 133.11893 37976 ft 433 kts 318°
2026-05-04 03:23 -15.01025 133.08003 37962 ft 434 kts 319°
2026-05-04 03:23 -14.96303 133.04105 37957 ft 434 kts 318°
2026-05-04 03:24 -14.91600 133.00189 37971 ft 434 kts 318°
2026-05-04 03:24 -14.86909 132.96268 37980 ft 434 kts 318°
2026-05-04 03:25 -14.82220 132.92347 37960 ft 434 kts 318°
2026-05-04 03:25 -14.77522 132.88420 37967 ft 434 kts 318°
2026-05-04 03:26 -14.72826 132.84498 37969 ft 434 kts 318°
2026-05-04 03:26 -14.68128 132.80577 37960 ft 434 kts 318°
2026-05-04 03:27 -14.63451 132.76676 37961 ft 435 kts 318°
2026-05-04 03:27 -14.58738 132.72747 37972 ft 436 kts 318°
2026-05-04 03:28 -14.54011 132.68809 37961 ft 437 kts 318°
2026-05-04 03:28 -14.49281 132.64870 37963 ft 437 kts 318°
2026-05-04 03:29 -14.44557 132.60940 37960 ft 436 kts 318°
2026-05-04 03:29 -14.39833 132.57011 37964 ft 436 kts 318°
2026-05-04 03:30 -14.35116 132.53090 37964 ft 435 kts 318°
2026-05-04 03:30 -14.30401 132.49172 37958 ft 435 kts 318°
2026-05-04 03:31 -14.25666 132.45240 37968 ft 438 kts 318°
2026-05-04 03:31 -14.20900 132.41284 37959 ft 441 kts 318°
2026-05-04 03:32 -14.16135 132.37331 37943 ft 443 kts 318°
2026-05-04 03:32 -14.11329 132.33349 37942 ft 443 kts 318°
2026-05-04 03:33 -14.06520 132.29365 37946 ft 443 kts 318°
2026-05-04 03:33 -14.01715 132.25387 37942 ft 442 kts 318°
2026-05-04 03:34 -13.96921 132.21419 37942 ft 442 kts 318°
2026-05-04 03:34 -13.92133 132.17459 37939 ft 441 kts 318°
2026-05-04 03:35 -13.87350 132.13504 37939 ft 441 kts 318°
2026-05-04 03:35 -13.82566 132.09552 37939 ft 441 kts 318°
2026-05-04 03:36 -13.77779 132.05599 37939 ft 440 kts 318°
2026-05-04 03:36 -13.73030 132.01679 37941 ft 440 kts 318°
2026-05-04 03:37 -13.68251 131.97737 37933 ft 440 kts 318°
2026-05-04 03:37 -13.63473 131.93797 37938 ft 440 kts 318°
2026-05-04 03:38 -13.58695 131.89860 37939 ft 440 kts 318°
2026-05-04 03:38 -13.56302 131.87889 37762 ft 443 kts 318°
2026-05-04 03:38 -13.53882 131.85894 37239 ft 445 kts 318°
2026-05-04 03:38 -13.51467 131.83906 36622 ft 443 kts 318°
2026-05-04 03:39 -13.49060 131.81925 36005 ft 442 kts 318°
2026-05-04 03:39 -13.47472 131.80619 35573 ft 442 kts 318°
2026-05-04 03:39 -13.44256 131.78012 34649 ft 445 kts 321°
2026-05-04 03:39 -13.41722 131.76165 33951 ft 448 kts 322°
2026-05-04 03:40 -13.39136 131.74365 33118 ft 450 kts 323°
2026-05-04 03:40 -13.36529 131.72577 32328 ft 451 kts 323°
2026-05-04 03:40 -13.34797 131.71389 31813 ft 452 kts 323°
2026-05-04 03:40 -13.32150 131.69566 31003 ft 453 kts 323°
2026-05-04 03:41 -13.29567 131.67775 30170 ft 455 kts 322°
2026-05-04 03:41 -13.26941 131.65945 29177 ft 457 kts 323°
2026-05-04 03:41 -13.24305 131.64104 28187 ft 458 kts 323°
2026-05-04 03:41 -13.21666 131.62260 27189 ft 460 kts 323°
2026-05-04 03:42 -13.19018 131.60409 26187 ft 461 kts 324°
2026-05-04 03:42 -13.16365 131.58556 25408 ft 459 kts 324°
2026-05-04 03:42 -13.13734 131.56720 24646 ft 455 kts 324°
2026-05-04 03:42 -13.11124 131.54898 23909 ft 452 kts 324°
2026-05-04 03:43 -13.08535 131.53092 23102 ft 449 kts 324°
2026-05-04 03:43 -13.05963 131.51298 22303 ft 445 kts 324°
2026-05-04 03:43 -13.03419 131.49525 21556 ft 440 kts 324°
2026-05-04 03:43 -13.00888 131.47762 20614 ft 440 kts 324°
2026-05-04 03:44 -12.98367 131.46009 19821 ft 437 kts 324°
2026-05-04 03:44 -12.95857 131.44263 19073 ft 434 kts 324°
2026-05-04 03:44 -12.93373 131.42536 18350 ft 430 kts 324°
2026-05-04 03:44 -12.90905 131.40820 17543 ft 427 kts 324°
2026-05-04 03:45 -12.88463 131.39122 16800 ft 422 kts 324°
2026-05-04 03:45 -12.86050 131.37444 16089 ft 417 kts 324°
2026-05-04 03:45 -12.83697 131.35808 15403 ft 412 kts 324°
2026-05-04 03:45 -12.81336 131.34167 14710 ft 408 kts 325°
2026-05-04 03:46 -12.79001 131.32544 14003 ft 404 kts 325°
2026-05-04 03:46 -12.76687 131.30936 13291 ft 401 kts 325°
2026-05-04 03:46 -12.74399 131.29346 12778 ft 392 kts 325°
2026-05-04 03:46 -12.72162 131.27793 12350 ft 386 kts 325°
2026-05-04 03:47 -12.69964 131.26267 12007 ft 376 kts 325°
2026-05-04 03:47 -12.67832 131.24788 11655 ft 366 kts 325°
2026-05-04 03:47 -12.65749 131.23342 11321 ft 357 kts 325°
2026-05-04 03:47 -12.63717 131.21927 10984 ft 350 kts 325°
2026-05-04 03:48 -12.61785 131.20461 10634 ft 343 kts 315°
2026-05-04 03:48 -12.60409 131.18518 10289 ft 333 kts 294°
2026-05-04 03:48 -12.59612 131.16342 9985 ft 321 kts 288°
2026-05-04 03:48 -12.58929 131.14204 9639 ft 311 kts 287°
2026-05-04 03:49 -12.58263 131.12123 9276 ft 304 kts 288°
2026-05-04 03:49 -12.57605 131.10092 8942 ft 297 kts 288°
2026-05-04 03:49 -12.56955 131.08109 8667 ft 291 kts 288°
2026-05-04 03:49 -12.56308 131.06149 8437 ft 290 kts 289°
2026-05-04 03:50 -12.55660 131.04203 8205 ft 288 kts 289°
2026-05-04 03:50 -12.55017 131.02270 7975 ft 286 kts 289°
2026-05-04 03:50 -12.54380 131.00351 7744 ft 283 kts 289°
2026-05-04 03:50 -12.53756 130.98474 7523 ft 282 kts 289°
2026-05-04 03:51 -12.53125 130.96579 7306 ft 281 kts 289°
2026-05-04 03:51 -12.52497 130.94694 7079 ft 280 kts 289°
2026-05-04 03:51 -12.51872 130.92814 6858 ft 278 kts 289°
2026-05-04 03:51 -12.51247 130.90934 6660 ft 280 kts 289°
2026-05-04 03:52 -12.50614 130.89035 6424 ft 282 kts 289°
2026-05-04 03:52 -12.49980 130.87136 6197 ft 282 kts 289°
2026-05-04 03:52 -12.49348 130.85246 5893 ft 278 kts 289°
2026-05-04 03:52 -12.48715 130.83380 5466 ft 276 kts 289°
2026-05-04 03:53 -12.48086 130.81531 5037 ft 274 kts 289°
2026-05-04 03:53 -12.47460 130.79695 4630 ft 271 kts 289°
2026-05-04 03:53 -12.46852 130.77910 4253 ft 267 kts 289°
2026-05-04 03:53 -12.46251 130.76145 3899 ft 257 kts 289°
2026-05-04 03:54 -12.45664 130.74448 3568 ft 249 kts 292°
2026-05-04 03:54 -12.44607 130.73108 3182 ft 242 kts 330°
2026-05-04 03:54 -12.43061 130.72774 3045 ft 219 kts 13°
2026-05-04 03:54 -12.41689 130.73238 2866 ft 202 kts 23°
2026-05-04 03:55 -12.40360 130.73735 2417 ft 197 kts 22°
2026-05-04 03:55 -12.39194 130.74313 2286 ft 177 kts 45°
2026-05-04 03:55 -12.38527 130.75323 2218 ft 172 kts 71°
2026-05-04 03:55 -12.38280 130.76519 2034 ft 172 kts 86°
2026-05-04 03:56 -12.38182 130.77733 1823 ft 171 kts 98°
2026-05-04 03:56 -12.38463 130.78901 1635 ft 169 kts 106°
2026-05-04 03:56 -12.38783 130.79998 1415 ft 153 kts 110°
2026-05-04 03:56 -12.39107 130.80980 1230 ft 145 kts 109°
2026-05-04 03:57 -12.39424 130.81939 1019 ft 138 kts 109°
2026-05-04 03:57 -12.39734 130.82883 846 ft 144 kts 110°
2026-05-04 03:57 -12.40059 130.83869 692 ft 146 kts 110°
2026-05-04 03:57 -12.40385 130.84854 478 ft 146 kts 111°
2026-05-04 03:58 -12.41020 130.86785 102 ft 138 kts 112°
2026-05-04 03:58 -12.41301 130.87603 92 ft 98 kts 109°
2026-05-04 03:58 -12.41458 130.88067 87 ft 43 kts 109°
2026-05-04 03:59 -12.41530 130.88276 88 ft 22 kts 109°
2026-05-04 03:59 -12.41575 130.88392 86 ft 16 kts 125°
2026-05-04 03:59 -12.41666 130.88433 88 ft 13 kts 185°
2026-05-04 03:59 -12.41754 130.88405 92 ft 14 kts 200°
2026-05-04 04:00 -12.41816 130.88326 89 ft 15 kts 259°
2026-05-04 04:00 -12.41794 130.88220 89 ft 16 kts 289°
2026-05-04 04:00 -12.41754 130.88102 90 ft 18 kts 289°
2026-05-04 04:00 -12.41714 130.87989 90 ft 16 kts 295°
2026-05-04 04:01 -12.41632 130.87928 89 ft 15 kts 352°
2026-05-04 04:01 -12.41518 130.87953 90 ft 19 kts 19°
2026-05-04 04:01 -12.41380 130.88002 87 ft 22 kts 19°
2026-05-04 04:01 -12.41244 130.88050 91 ft 21 kts 19°
2026-05-04 04:02 -12.41136 130.88088 90 ft 12 kts 19°
2026-05-04 04:02 -12.41068 130.88084 89 ft 11 kts 318°
2026-05-04 04:02 -12.41028 130.87991 90 ft 17 kts 289°
2026-05-04 04:02 -12.40987 130.87872 89 ft 18 kts 288°
2026-05-04 04:03 -12.40965 130.87767 92 ft 14 kts 280°
2026-05-04 04:03 -12.40953 130.87698 90 ft 8 kts 281°
2026-05-04 04:03 -12.40941 130.87663 91 ft 3 kts 323°
2026-05-04 04:03 -12.40912 130.87668 90 ft 6 kts 18°
2026-05-04 04:04 -12.40874 130.87681 91 ft 4 kts 19°
2026-05-04 04:04 -12.40866 130.87684 89 ft 0 kts 19°